GW7352 Weather Reports


time (UTC)temp
F
wind
direction
speed
knots
gust
knots
rain 1hr
in
rain 24hr
in
rain mn
in
humidity
%
barometer
mb
20260504160144 55 239 0.0 7.0 0.00 0.00 0.00 56 936.7
20260504151123 51 293 0.0 0.0 0.00 0.00 0.00 67 936.9
20260504150123 50 225 0.0 0.0 0.00 0.00 0.00 67 936.9
20260504141123 46 248 0.0 0.0 0.00 0.00 0.00 73 936.7
20260504140123 46 248 0.0 0.0 0.00 0.00 0.00 72 936.7
20260504130123 45 90 0.0 0.0 0.00 0.00 0.00 72 936.2
20260504120123 46 180 0.0 0.0 0.00 0.00 0.00 67 935.7
20260504110123 48 113 0.0 0.0 0.00 0.00 0.00 65 935.6
20260504100123 49 135 0.0 0.0 0.00 0.00 0.00 62 935.5
20260504081123 51 180 0.0 0.0 0.00 0.00 0.00 57 935.4
20260504080123 52 180 0.0 0.0 0.00 0.00 0.00 56 935.5
20260504070144 54 90 0.0 0.0 0.00 0.00 0.00 53 935.2
20260504060123 56 180 0.0 0.0 0.00 0.00 0.00 49 935.1
20260504050122 59 180 0.0 0.0 0.00 0.00 0.00 46 934.9
20260504045123 59 248 0.0 0.0 0.00 0.00 0.00 46 934.9
20260504044122 59 225 0.0 0.0 0.00 0.00 0.00 46 934.8
20260504043122 60 135 0.0 0.0 0.00 0.00 0.00 46 934.7
20260504042122 60 225 0.0 0.0 0.00 0.00 0.00 46 934.9
20260504041123 61 225 0.0 0.0 0.00 0.00 0.00 44 934.8
20260504040123 61 203 0.0 0.0 0.00 0.00 0.00 45 934.9
20260504035123 62 248 0.0 0.0 0.00 0.00 0.00 43 934.9
20260504034123 63 203 0.0 0.0 0.00 0.00 0.00 42 934.7
20260504033122 64 113 0.0 0.0 0.00 0.00 0.00 41 934.6
20260504032123 65 113 0.0 0.0 0.00 0.00 0.00 39 934.5
20260504031122 66 90 0.0 0.0 0.00 0.00 0.00 39 934.4
20260504030122 67 225 0.0 0.0 0.00 0.00 0.00 39 934.4
20260504025144 69 239 0.9 2.6 0.00 0.00 0.00 37 934.2
20260504024122 70 238 0.9 5.2 0.00 0.00 0.00 34 934.0
20260504023122 71 233 0.0 5.2 0.00 0.00 0.00 32 933.9
20260504022123 72 68 0.0 1.7 0.00 0.00 0.00 31 933.8
20260504021123 73 37 0.0 3.5 0.00 0.00 0.00 29 933.8
20260504020122 74 284 0.0 5.2 0.00 0.00 0.00 28 933.8
20260504015123 76 203 0.0 0.0 0.00 0.00 0.00 25 933.8
20260504014122 78 53 0.9 4.3 0.00 0.00 0.00 24 933.9
20260504013123 81 51 0.9 3.5 0.00 0.00 0.00 22 933.8
20260504012122 82 36 0.9 2.6 0.00 0.00 0.00 22 933.9
20260504011122 82 40 0.9 3.5 0.00 0.00 0.00 21 933.9
20260504010123 83 3 0.9 5.2 0.00 0.00 0.00 21 934.0
20260504005144 83 3 0.9 3.5 0.00 0.00 0.00 21 934.0
20260504004123 83 20 1.7 7.0 0.00 0.00 0.00 20 934.0
20260504003122 84 14 0.9 3.5 0.00 0.00 0.00 20 934.1
20260504002144 85 328 0.0 3.5 0.00 0.00 0.00 21 934.0
20260504001144 85 21 0.9 5.2 0.00 0.00 0.00 19 934.1
20260504000123 85 56 0.0 2.6 0.00 0.00 0.00 20 934.2
20260503235122 86 360 0.0 0.0 0.00 0.00 0.00 20 934.2
20260503234123 85 23 0.0 0.0 0.00 0.00 0.00 20 934.2
20260503233122 86 45 0.0 2.6 0.00 0.00 0.00 21 934.4
20260503232122 85 34 0.9 4.3 0.00 0.00 0.00 21 934.5
20260503231144 85 56 0.9 5.2 0.00 0.00 0.00 22 934.7
20260503230124 83 22 0.9 4.3 0.00 0.00 0.00 24 934.7
20260503225123 84 70 0.0 2.6 0.00 0.00 0.00 23 934.8
20260503224143 83 45 0.0 2.6 0.00 0.00 0.00 23 935.0
20260503223122 83 29 0.9 5.2 0.00 0.00 0.00 23 935.2
20260503222123 81 43 0.0 5.2 0.00 0.00 0.00 24 935.2
20260503221122 81 11 0.9 6.1 0.00 0.00 0.00 28 935.4
20260503220123 81 298 0.0 2.6 0.00 0.00 0.00 25 935.4
20260503215122 82 49 0.9 4.3 0.00 0.00 0.00 25 935.7
20260503214122 82 37 0.9 6.1 0.00 0.00 0.00 23 935.9
20260503213122 82 360 0.0 0.0 0.00 0.00 0.00 25 936.0
20260503212122 81 291 0.0 2.6 0.00 0.00 0.00 28 936.2
20260503211123 80 13 0.9 4.3 0.00 0.00 0.00 26 936.4
20260503210144 79 285 1.7 5.2 0.00 0.00 0.00 28 936.5
20260503205123 80 227 0.9 7.0 0.00 0.00 0.00 28 936.5
20260503204123 80 39 0.9 4.3 0.00 0.00 0.00 27 936.7
20260503203123 78 223 0.0 6.1 0.00 0.00 0.00 30 936.9
20260503202123 78 230 0.0 3.5 0.00 0.00 0.00 28 937.0
20260503201122 78 269 0.9 3.5 0.00 0.00 0.00 26 937.2
20260503200144 77 233 0.9 6.1 0.00 0.00 0.00 27 937.2
20260503195122 75 256 0.9 7.0 0.00 0.00 0.00 29 937.4
20260503194123 74 236 0.9 7.0 0.00 0.00 0.00 30 937.6
20260503193122 73 219 0.9 6.1 0.00 0.00 0.00 32 937.8
20260503192122 72 235 1.7 7.0 0.00 0.00 0.00 31 938.1
20260503191123 71 237 1.7 6.1 0.00 0.00 0.00 32 938.2
20260503190123 71 227 2.6 7.0 0.00 0.00 0.00 34 938.2
20260503185122 69 241 2.6 6.1 0.00 0.00 0.00 35 938.2
20260503184122 68 244 2.6 7.8 0.00 0.00 0.00 36 938.4
20260503183143 68 239 1.7 6.1 0.00 0.00 0.00 35 938.6
20260503182123 67 233 1.7 6.1 0.00 0.00 0.00 36 938.9
20260503181123 66 250 0.9 7.0 0.00 0.00 0.00 36 939.1
20260503180123 65 222 1.7 5.2 0.00 0.00 0.00 39 939.1
20260503175125 64 259 0.9 6.1 0.00 0.00 0.00 39 939.4
20260503174130 63 234 0.9 4.3 0.00 0.00 0.00 42 939.6
20260503173123 63 262 0.9 5.2 0.00 0.00 0.00 43 939.7
20260503172143 61 253 0.9 4.3 0.00 0.00 0.00 45 940.0
20260503171122 60 234 0.0 3.5 0.00 0.00 0.00 48 940.0
20260503170122 59 203 0.0 0.0 0.00 0.00 0.00 48 940.2